Change the Weather History Date:

Saturday, January 11, 2014

  Actual Average (KHOU) Record (KHOU)
Temperature  
Mean Temperature 60 °F 53 °F  
Max Temperature 75 °F 63 °F 81 °F (1995)
Min Temperature 46 °F 43 °F 12 °F (1982)
Degree Days  
Heating Degree Days 4 13  
Month to date heating degree days 143  
Since 1 July heating degree days 682  
Growing Degree Days 10 (Base 50)    
Moisture  
Dew Point 49 °F    
Average Humidity 68    
Maximum Humidity 93    
Minimum Humidity 15    
Precipitation  
Precipitation 0.00 in 0.10 in 2.78 in (1900)
Month to date precipitation 1.15  
Year to date precipitation 1.15  
Sea Level Pressure  
Sea Level Pressure 30.00 in    
Wind  
Wind Speed 7 mph (West)    
Max Wind Speed 15 mph    
Max Gust Speed -    
Visibility 7 miles    
Events Fog    
T = Trace of Precipitation, MM = Missing Value Source: NWS Daily Summary

Daily Weather History Graph

Daily Weather History Graph

Search for Another Location

Airport or City:

Trip Planner

Search our weather history database for the weather conditions in past years. The results will help you decide how hot, cold, wet, or windy it might be!

Date:

Astronomy

Jan. 11, 2014 Rise Set
Actual Time 7:16 AM CST 5:41 PM CST
Civil Twilight 6:51 AM CST 6:07 PM CST
Nautical Twilight 6:21 AM CST 6:36 PM CST
Astronomical Twilight 5:52 AM CST 7:05 PM CST
Moon 2:22 PM CST (1/11) 3:26 AM CST (1/11)
Length of Visible Light 11h 15m
Length of Day
10h 24m
Waxing Gibbous, 83% of the Moon is Illuminated
Jan 11
Waxing Gibbous
Jan 15
Full
Jan 23
Last Quarter
Jan 30
New
Feb 6
First Quarter

Hourly Weather History & Observations

Time (CST) Temp. Dew Point Humidity Pressure Visibility Wind Dir Wind Speed Gust Speed Precip Events Conditions
12:04 AM 69.1 °F 64.0 °F 84% 29.88 in 10.0 mi West 9.2 mph - N/A   Overcast
12:21 AM 69.1 °F 64.0 °F 84% 29.88 in 10.0 mi West 8.1 mph - N/A   Overcast
12:36 AM 68.0 °F 64.0 °F 87% 29.88 in 10.0 mi West 8.1 mph - N/A   Overcast
12:53 AM 68.0 °F 64.0 °F 87% 29.88 in 9.0 mi WSW 8.1 mph - N/A   Overcast
1:45 AM 64.9 °F 62.1 °F 90% 29.88 in 6.0 mi SW 4.6 mph - N/A   Scattered Clouds
1:53 AM 64.9 °F 61.0 °F 87% 29.88 in 6.0 mi WSW 4.6 mph - N/A   Partly Cloudy
2:30 AM 63.0 °F 61.0 °F 93% 29.88 in 3.0 mi SW 3.5 mph - N/A   Mostly Cloudy
2:53 AM 63.0 °F 61.0 °F 93% 29.88 in 1.2 mi WSW 8.1 mph - N/A   Overcast
3:02 AM 63.0 °F 61.0 °F 93% 29.88 in 0.5 mi SW 6.9 mph - N/A Fog Fog
3:18 AM 63.0 °F 61.0 °F 93% 29.89 in 2.0 mi SW 5.8 mph - N/A   Overcast
3:26 AM 63.0 °F 61.0 °F 93% 29.89 in 4.0 mi SW 6.9 mph - N/A   Overcast
3:53 AM 62.1 °F 60.1 °F 93% 29.90 in 4.0 mi WSW 4.6 mph - N/A   Overcast
4:53 AM 61.0 °F 59.0 °F 93% 29.92 in 2.5 mi WSW 4.6 mph - N/A   Overcast
5:06 AM 61.0 °F 59.0 °F 93% 29.92 in 3.0 mi WSW 5.8 mph - N/A   Overcast
5:53 AM 61.0 °F 57.9 °F 90% 29.94 in 4.0 mi West 4.6 mph - N/A   Overcast
6:53 AM 59.0 °F 57.0 °F 93% 29.97 in 3.0 mi SW 4.6 mph - N/A   Mostly Cloudy
7:04 AM 59.0 °F 57.0 °F 93% 29.98 in 3.0 mi West 5.8 mph - N/A   Scattered Clouds
7:25 AM 57.9 °F 55.9 °F 93% 29.99 in 2.5 mi West 4.6 mph - N/A   Clear
7:37 AM 57.9 °F 55.9 °F 93% 30.00 in 3.0 mi WNW 4.6 mph - N/A   Clear
7:53 AM 57.9 °F 55.9 °F 93% 30.00 in 4.0 mi WNW 4.6 mph - N/A   Clear
8:53 AM 62.1 °F 54.0 °F 75% 30.05 in 9.0 mi NW 9.2 mph - N/A   Clear
9:53 AM 64.9 °F 52.0 °F 63% 30.09 in 10.0 mi North 12.7 mph - N/A   Clear
10:53 AM 69.1 °F 44.1 °F 40% 30.10 in 10.0 mi North 15.0 mph - N/A   Clear
11:53 AM 72.0 °F 39.0 °F 30% 30.09 in 10.0 mi North 12.7 mph - N/A   Clear
12:53 PM 73.9 °F 36.0 °F 25% 30.06 in 10.0 mi North 13.8 mph - N/A   Clear
1:53 PM 75.0 °F 33.1 °F 22% 30.05 in 10.0 mi North 12.7 mph - N/A   Clear
2:53 PM 75.0 °F 27.0 °F 17% 30.05 in 10.0 mi NNW 11.5 mph - N/A   Clear
3:53 PM 73.0 °F 23.0 °F 15% 30.06 in 10.0 mi NNW 13.8 mph - N/A   Clear
4:53 PM 72.0 °F 25.0 °F 17% 30.08 in 10.0 mi NNW 6.9 mph - N/A   Clear
5:53 PM 68.0 °F 21.9 °F 17% 30.09 in 10.0 mi NNW 8.1 mph - N/A   Clear
6:53 PM 63.0 °F 25.0 °F 24% 30.11 in 10.0 mi North 4.6 mph - N/A   Clear
7:53 PM 55.0 °F 30.9 °F 40% 30.13 in 10.0 mi Calm Calm - N/A   Clear
8:53 PM 51.1 °F 33.1 °F 50% 30.15 in 10.0 mi Calm Calm - N/A   Clear
9:53 PM 48.0 °F 34.0 °F 58% 30.16 in 10.0 mi Calm Calm - N/A   Clear
10:53 PM 46.9 °F 34.0 °F 61% 30.15 in 10.0 mi Calm Calm - N/A   Clear
11:53 PM 46.0 °F 34.0 °F 63% 30.14 in 10.0 mi Calm Calm - N/A   Clear